EW8363 Weather Reports


Display with metric or nautical units.
time (UTC)temp
F
wind
direction
speed
MPH
gust
MPH
rain 1hr
in
rain 24hr
in
rain mn
in
humidity
%
barometer
mb
20190825140829 71 0 1.0 3.0 0.00 0.00 0.00 45 1020.4
20190825140319 71 0 2.0 3.0 0.00 0.00 0.00 45 1020.3
20190825135812 71 270 1.0 2.0 0.00 0.00 0.00 45 1020.2
20190825135259 71 0 1.0 2.0 0.00 0.00 0.00 46 1020.2
20190825134748 72 0 1.0 2.0 0.00 0.00 0.00 45 1020.2
20190825134240 72 315 1.0 2.0 0.00 0.00 0.00 46 1020.0
20190825133729 72 0 1.0 2.0 0.00 0.00 0.00 47 1020.2
20190825133220 71 0 1.0 2.0 0.00 0.00 0.00 47 1020.3
20190825132709 71 0 1.0 3.0 0.00 0.00 0.00 46 1020.2
20190825132157 72 0 1.0 3.0 0.00 0.00 0.00 45 1020.1
20190825131648 71 0 1.0 3.0 0.00 0.00 0.00 47 1020.0
20190825131139 71 0 1.0 2.0 0.00 0.00 0.00 48 1019.9
20190825130628 70 0 1.0 3.0 0.00 0.00 0.00 48 1020.1
20190825130117 71 0 1.0 3.0 0.00 0.00 0.00 45 1020.1
20190825125609 71 0 1.0 3.0 0.00 0.00 0.00 45 1020.0
20190825125056 71 315 2.0 3.0 0.00 0.00 0.00 46 1020.0
20190825124547 70 0 1.0 3.0 0.00 0.00 0.00 47 1019.8
20190825124039 70 0 1.0 3.0 0.00 0.00 0.00 47 1019.8
20190825123527 71 0 2.0 3.0 0.00 0.00 0.00 46 1019.9
20190825123017 70 0 1.0 2.0 0.00 0.00 0.00 49 1019.9
20190825122508 70 0 1.0 2.0 0.00 0.00 0.00 50 1019.8
20190825121956 70 0 0.0 3.0 0.00 0.00 0.00 48 1019.8
20190825121448 71 0 2.0 3.0 0.00 0.00 0.00 48 1019.6
20190825120937 71 315 1.0 3.0 0.00 0.00 0.00 47 1019.8
20190825120426 70 0 2.0 3.0 0.00 0.00 0.00 47 1019.9
20190825115915 70 0 2.0 3.0 0.00 0.00 0.00 48 1019.8
20190825115407 69 0 2.0 3.0 0.00 0.00 0.00 51 1019.7
20190825114857 70 315 1.0 2.0 0.00 0.00 0.00 50 1019.8
20190825114345 69 0 1.0 2.0 0.00 0.00 0.00 50 1019.5
20190825113836 69 0 1.0 2.0 0.00 0.00 0.00 51 1019.5
20190825113325 68 0 0.0 2.0 0.00 0.00 0.00 52 1019.9
20190825112815 68 0 0.0 2.0 0.00 0.00 0.00 53 1019.7
20190825112308 68 0 1.0 2.0 0.00 0.00 0.00 53 1019.7
20190825111758 68 270 0.0 2.0 0.00 0.00 0.00 52 1019.6
20190825111244 68 315 1.0 3.0 0.00 0.00 0.00 53 1019.6
20190825110735 68 0 1.0 3.0 0.00 0.00 0.00 54 1019.7
20190825110224 68 270 0.0 0.0 0.00 0.00 0.00 53 1019.9
20190825105716 68 0 0.0 3.0 0.00 0.00 0.00 53 1019.9
20190825105205 68 270 0.0 3.0 0.00 0.00 0.00 52 1019.8
20190825104654 69 270 1.0 2.0 0.00 0.00 0.00 52 1019.9
20190825104143 68 270 0.0 0.0 0.00 0.00 0.00 52 1019.8
20190825103634 69 270 0.0 0.0 0.00 0.00 0.00 51 1019.8
20190825103125 70 270 0.0 1.0 0.00 0.00 0.00 50 1019.8
20190825102613 71 270 0.0 2.0 0.00 0.00 0.00 48 1019.7
20190825102104 71 180 0.0 2.0 0.00 0.00 0.00 46 1019.7
20190825101552 71 0 1.0 3.0 0.00 0.00 0.00 47 1019.7
20190825101042 72 0 1.0 3.0 0.00 0.00 0.00 45 1019.6
20190825100534 71 315 2.0 3.0 0.00 0.00 0.00 50 1019.6
20190825100030 71 315 2.0 3.0 0.00 0.00 0.00 50 1019.6
20190825095512 70 0 2.0 3.0 0.00 0.00 0.00 50 1019.7
20190825095003 71 0 1.0 3.0 0.00 0.00 0.00 49 1019.8
20190825094451 70 0 2.0 3.0 0.00 0.00 0.00 50 1019.8
20190825093943 69 0 1.0 3.0 0.00 0.00 0.00 51 1019.7
20190825093433 70 315 2.0 3.0 0.00 0.00 0.00 51 1019.8
20190825092921 69 0 1.0 1.0 0.00 0.00 0.00 52 1019.8
20190825092411 68 0 1.0 2.0 0.00 0.00 0.00 53 1019.9
20190825091902 68 0 1.0 2.0 0.00 0.00 0.00 56 1019.8
20190825091352 68 315 1.0 3.0 0.00 0.00 0.00 60 1019.5
20190825090841 69 0 1.0 3.0 0.00 0.00 0.00 60 1019.9
20190825090332 69 315 2.0 3.0 0.00 0.00 0.00 60 1019.9
20190825085821 69 270 0.0 0.0 0.00 0.00 0.00 61 1020.0
20190825085311 69 90 0.0 2.0 0.00 0.00 0.00 53 1020.1
20190825084803 69 90 0.0 2.0 0.00 0.00 0.00 53 1019.8
20190825084250 69 0 1.0 2.0 0.00 0.00 0.00 51 1020.0
20190825083741 70 0 1.0 3.0 0.00 0.00 0.00 51 1019.7
20190825083231 69 0 1.0 3.0 0.00 0.00 0.00 52 1020.0
20190825082720 70 315 2.0 3.0 0.00 0.00 0.00 53 1020.0
20190825082211 69 0 1.0 2.0 0.00 0.00 0.00 54 1019.9
20190825081701 68 0 1.0 2.0 0.00 0.00 0.00 60 1019.8
20190825081149 69 0 1.0 2.0 0.00 0.00 0.00 62 1020.1
20190825080640 68 0 0.0 0.0 0.00 0.00 0.00 65 1020.0
20190825080131 68 0 0.0 1.0 0.00 0.00 0.00 65 1019.8
20190825075620 68 0 0.0 1.0 0.00 0.00 0.00 67 1020.1
20190825075109 68 0 1.0 3.0 0.00 0.00 0.00 66 1020.1
20190825074600 68 0 1.0 3.0 0.00 0.00 0.00 67 1019.8
20190825074049 68 0 1.0 2.0 0.00 0.00 0.00 66 1020.0
20190825073542 69 0 1.0 1.0 0.00 0.00 0.00 65 1020.0
20190825073030 68 0 0.0 2.0 0.00 0.00 0.00 65 1020.2
20190825072518 69 0 0.0 2.0 0.00 0.00 0.00 65 1020.0
20190825072008 69 315 1.0 2.0 0.00 0.00 0.00 65 1019.9
20190825071459 69 0 0.0 0.0 0.00 0.00 0.00 65 1020.1
20190825070948 69 0 0.0 1.0 0.00 0.00 0.00 65 1020.3
20190825070439 69 0 0.0 2.0 0.00 0.00 0.00 66 1020.2
20190825065929 69 0 1.0 2.0 0.00 0.00 0.00 67 1020.2
20190825065417 68 0 0.0 0.0 0.00 0.00 0.00 70 1020.2
20190825064907 68 270 0.0 0.0 0.00 0.00 0.00 70 1020.2
20190825064358 68 0 0.0 0.0 0.00 0.00 0.00 70 1020.3
20190825063848 68 0 0.0 0.0 0.00 0.00 0.00 70 1020.3
20190825063336 68 270 0.0 0.0 0.00 0.00 0.00 70 1020.4
20190825062828 67 270 0.0 0.0 0.00 0.00 0.00 70 1020.4
20190825062317 67 270 0.0 0.0 0.00 0.00 0.00 70 1020.3
20190825061807 68 270 0.0 0.0 0.00 0.00 0.00 70 1020.4
20190825061259 68 315 0.0 0.0 0.00 0.00 0.00 70 1020.2
20190825060746 68 315 0.0 0.0 0.00 0.00 0.00 70 1020.2
20190825060236 68 0 0.0 0.0 0.00 0.00 0.00 71 1020.3
20190825055726 68 0 0.0 0.0 0.00 0.00 0.00 71 1020.2
20190825055221 68 270 0.0 0.0 0.00 0.00 0.00 70 1020.2
20190825054712 69 270 0.0 0.0 0.00 0.00 0.00 70 1020.4
20190825054157 69 270 0.0 0.0 0.00 0.00 0.00 70 1020.4
20190825053645 69 270 0.0 0.0 0.00 0.00 0.00 70 1020.4
20190825053135 69 0 0.0 1.0 0.00 0.00 0.00 70 1020.3
20190825052626 69 90 0.0 1.0 0.00 0.00 0.00 70 1020.4
20190825052116 69 180 0.0 0.0 0.00 0.00 0.00 70 1020.3
20190825051606 69 270 0.0 0.0 0.00 0.00 0.00 69 1020.2
20190825051056 70 180 0.0 1.0 0.00 0.00 0.00 67 1020.3
20190825050544 71 90 0.0 1.0 0.00 0.00 0.00 67 1020.3
20190825050034 71 180 1.0 1.0 0.00 0.00 0.00 68 1020.0
20190825045526 71 180 0.0 1.0 0.00 0.00 0.00 67 1020.1
20190825045014 71 90 0.0 1.0 0.00 0.00 0.00 66 1020.1
20190825044504 71 90 1.0 1.0 0.00 0.00 0.00 66 1020.1
20190825043954 71 180 0.0 0.0 0.00 0.00 0.00 65 1019.9
20190825043443 71 180 0.0 0.0 0.00 0.00 0.00 64 1020.0
20190825042935 72 180 0.0 0.0 0.00 0.00 0.00 63 1019.9
20190825042423 72 90 0.0 0.0 0.00 0.00 0.00 63 1020.0
20190825041913 73 180 0.0 0.0 0.00 0.00 0.00 60 1019.9
20190825041403 73 90 0.0 2.0 0.00 0.00 0.00 58 1019.8
20190825040853 74 90 1.0 2.0 0.00 0.00 0.00 58 1019.6
20190825040343 74 90 0.0 1.0 0.00 0.00 0.00 56 1019.7
20190825035832 74 90 1.0 3.0 0.00 0.00 0.00 56 1019.6
20190825035327 75 90 2.0 3.0 0.00 0.00 0.00 56 1019.7
20190825034812 75 180 0.0 2.0 0.00 0.00 0.00 56 1019.5
20190825034301 75 90 0.0 3.0 0.00 0.00 0.00 54 1019.4
20190825033754 76 90 1.0 3.0 0.00 0.00 0.00 53 1019.2
20190825033241 76 90 1.0 3.0 0.00 0.00 0.00 51 1019.2
20190825032731 77 135 3.0 3.0 0.00 0.00 0.00 51 1019.0
20190825032228 77 135 1.0 3.0 0.00 0.00 0.00 50 1019.1
20190825031711 77 135 1.0 3.0 0.00 0.00 0.00 49 1019.0
20190825031203 77 180 0.0 3.0 0.00 0.00 0.00 48 1019.0
20190825030652 77 90 0.0 3.0 0.00 0.00 0.00 47 1019.1
20190825030140 78 90 1.0 3.0 0.00 0.00 0.00 46 1018.9
20190825025631 78 270 0.0 3.0 0.00 0.00 0.00 45 1019.2
20190825025121 79 135 1.0 3.0 0.00 0.00 0.00 43 1019.0
20190825024611 79 90 0.0 0.0 0.00 0.00 0.00 44 1019.1
20190825024100 79 90 0.0 0.0 0.00 0.00 0.00 43 1018.9
20190825023551 80 270 0.0 0.0 0.00 0.00 0.00 43 1018.8
20190825023040 80 180 0.0 0.0 0.00 0.00 0.00 42 1018.9
20190825022530 81 270 0.0 0.0 0.00 0.00 0.00 42 1018.9
20190825022022 82 270 0.0 0.0 0.00 0.00 0.00 38 1018.8
20190825021510 82 0 0.0 0.0 0.00 0.00 0.00 37 1018.8
20190825021000 83 90 0.0 0.0 0.00 0.00 0.00 35 1018.8
20190825020450 84 180 0.0 2.0 0.00 0.00 0.00 36 1018.8
20190825015939 83 180 1.0 2.0 0.00 0.00 0.00 36 1018.9
20190825015430 84 180 1.0 2.0 0.00 0.00 0.00 34 1018.6
20190825014919 85 180 1.0 3.0 0.00 0.00 0.00 33 1018.9
20190825014408 85 180 1.0 4.0 0.00 0.00 0.00 33 1018.8
20190825013858 85 225 3.0 4.0 0.00 0.00 0.00 34 1018.9
20190825013349 86 135 1.0 3.0 0.00 0.00 0.00 35 1018.6
20190825012839 86 180 2.0 4.0 0.00 0.00 0.00 35 1018.9
20190825012328 86 180 3.0 4.0 0.00 0.00 0.00 36 1018.8
20190825011819 87 180 2.0 5.0 0.00 0.00 0.00 36 1018.9
20190825011308 86 180 2.0 5.0 0.00 0.00 0.00 37 1018.8
20190825010757 87 135 3.0 5.0 0.00 0.00 0.00 36 1018.8
20190825010249 87 180 3.0 5.0 0.00 0.00 0.00 37 1018.9
20190825005737 86 180 4.0 6.0 0.00 0.00 0.00 36 1018.9
20190825005227 86 180 3.0 6.0 0.00 0.00 0.00 37 1019.1
20190825004717 88 180 2.0 7.0 0.00 0.00 0.00 35 1019.0
20190825004206 87 180 1.0 7.0 0.00 0.00 0.00 37 1019.0
20190825003658 86 180 3.0 7.0 0.00 0.00 0.00 36 1019.0
20190825003147 87 180 6.0 7.0 0.00 0.00 0.00 37 1018.9
20190825002636 88 135 5.0 8.0 0.00 0.00 0.00 36 1018.6
20190825002126 88 180 7.0 8.0 0.00 0.00 0.00 36 1018.8
20190825001617 88 180 3.0 7.0 0.00 0.00 0.00 36 1018.8
20190825001111 88 180 2.0 7.0 0.00 0.00 0.00 37 1018.8
20190825000556 87 180 6.0 7.0 0.00 0.00 0.00 37 1018.8
20190825000046 87 180 6.0 7.0 0.00 0.00 0.00 37 1018.8
20190824235536 87 225 5.0 9.0 0.00 0.00 0.00 37 1018.8
20190824235025 87 225 7.0 9.0 0.00 0.00 0.00 38 1019.0
20190824234517 89 270 3.0 8.0 0.00 0.00 0.00 37 1018.6
20190824234004 87 180 5.0 8.0 0.00 0.00 0.00 37 1018.6
20190824233455 90 180 4.0 8.0 0.00 0.00 0.00 38 1018.6
20190824232945 88 225 5.0 8.0 0.00 0.00 0.00 40 1018.8
20190824232434 88 180 7.0 8.0 0.00 0.00 0.00 38 1018.9
20190824231925 90 270 4.0 8.0 0.00 0.00 0.00 38 1018.8
20190824231416 89 225 5.0 8.0 0.00 0.00 0.00 37 1018.8
20190824230904 90 90 5.0 7.0 0.00 0.00 0.00 37 1018.5
20190824230354 90 180 3.0 7.0 0.00 0.00 0.00 39 1018.5
20190824225845 89 180 6.0 7.0 0.00 0.00 0.00 38 1018.8
20190824225334 90 180 3.0 7.0 0.00 0.00 0.00 40 1018.6
20190824224823 89 180 4.0 7.0 0.00 0.00 0.00 40 1018.6
20190824224314 89 135 4.0 10.0 0.00 0.00 0.00 40 1019.0
20190824223803 88 270 7.0 10.0 0.00 0.00 0.00 40 1018.8
20190824223253 89 225 3.0 9.0 0.00 0.00 0.00 40 1018.8
20190824222745 87 270 7.0 9.0 0.00 0.00 0.00 40 1018.8
20190824222232 88 180 4.0 9.0 0.00 0.00 0.00 40 1018.9
20190824221723 88 180 4.0 9.0 0.00 0.00 0.00 41 1018.6
20190824221214 87 270 6.0 8.0 0.00 0.00 0.00 40 1019.1
20190824220702 89 45 5.0 7.0 0.00 0.00 0.00 40 1018.9
20190824220153 90 135 5.0 11.0 0.00 0.00 0.00 38 1018.9
20190824215643 91 135 3.0 11.0 0.00 0.00 0.00 34 1019.0
20190824215132 90 135 4.0 9.0 0.00 0.00 0.00 38 1018.9
20190824214621 89 90 7.0 9.0 0.00 0.00 0.00 36 1019.2
20190824214112 89 180 5.0 10.0 0.00 0.00 0.00 37 1019.0
20190824213603 89 270 3.0 11.0 0.00 0.00 0.00 37 1019.1
20190824213052 87 225 10.0 11.0 0.00 0.00 0.00 35 1019.3
20190824212542 89 90 3.0 11.0 0.00 0.00 0.00 34 1019.2
20190824212031 89 180 5.0 11.0 0.00 0.00 0.00 34 1019.3
20190824211520 90 180 5.0 8.0 0.00 0.00 0.00 35 1019.2
20190824211013 89 135 4.0 11.0 0.00 0.00 0.00 33 1019.1
20190824210500 88 135 5.0 11.0 0.00 0.00 0.00 34 1019.3
20190824205950 91 90 4.0 9.0 0.00 0.00 0.00 32 1019.1
20190824205441 89 135 5.0 9.0 0.00 0.00 0.00 35 1019.1
20190824204930 88 90 7.0 9.0 0.00 0.00 0.00 35 1019.2
20190824204421 88 180 5.0 8.0 0.00 0.00 0.00 34 1019.0
20190824203911 89 90 5.0 10.0 0.00 0.00 0.00 34 1019.3
20190824203359 89 180 8.0 10.0 0.00 0.00 0.00 35 1019.2
20190824202853 90 225 5.0 10.0 0.00 0.00 0.00 36 1019.2
20190824202340 88 180 5.0 10.0 0.00 0.00 0.00 35 1019.2
20190824201829 88 180 4.0 9.0 0.00 0.00 0.00 36 1019.3
20190824201318 88 135 5.0 8.0 0.00 0.00 0.00 35 1019.1
20190824200810 90 135 1.0 7.0 0.00 0.00 0.00 34 1019.0
20190824200258 88 90 6.0 7.0 0.00 0.00 0.00 35 1019.1
20190824195748 89 225 2.0 11.0 0.00 0.00 0.00 35 1019.2
20190824195240 87 135 4.0 11.0 0.00 0.00 0.00 36 1019.2
20190824194728 90 90 3.0 8.0 0.00 0.00 0.00 37 1019.2
20190824194218 88 135 5.0 7.0 0.00 0.00 0.00 35 1019.3
20190824193709 88 180 6.0 9.0 0.00 0.00 0.00 35 1019.1
20190824193158 88 0 2.0 9.0 0.00 0.00 0.00 35 1019.3
20190824192649 87 180 5.0 7.0 0.00 0.00 0.00 36 1019.3
20190824192139 87 135 3.0 9.0 0.00 0.00 0.00 36 1019.1
20190824191627 86 135 6.0 9.0 0.00 0.00 0.00 36 1019.4
20190824191117 85 0 3.0 9.0 0.00 0.00 0.00 39 1019.4
20190824190608 85 135 6.0 7.0 0.00 0.00 0.00 37 1019.3
20190824190059 85 225 5.0 8.0 0.00 0.00 0.00 37 1019.4
20190824185547 85 135 5.0 8.0 0.00 0.00 0.00 38 1019.4
20190824185038 87 135 4.0 6.0 0.00 0.00 0.00 38 1019.3
20190824184526 85 90 2.0 8.0 0.00 0.00 0.00 38 1019.4
20190824184017 84 225 5.0 8.0 0.00 0.00 0.00 39 1019.5
20190824183508 83 180 5.0 8.0 0.00 0.00 0.00 39 1019.6
20190824182956 85 180 6.0 7.0 0.00 0.00 0.00 36 1019.5
20190824182446 84 180 3.0 7.0 0.00 0.00 0.00 38 1019.7
20190824181937 85 90 5.0 7.0 0.00 0.00 0.00 36 1019.5
20190824181425 85 225 4.0 7.0 0.00 0.00 0.00 37 1019.5
20190824180916 83 90 4.0 7.0 0.00 0.00 0.00 38 1019.4
20190824180406 83 90 5.0 7.0 0.00 0.00 0.00 40 1019.3
20190824175855 82 135 5.0 7.0 0.00 0.00 0.00 38 1019.4
20190824175344 83 180 5.0 7.0 0.00 0.00 0.00 40 1019.2
20190824174836 84 180 2.0 8.0 0.00 0.00 0.00 40 1019.3
20190824174325 82 180 7.0 8.0 0.00 0.00 0.00 40 1019.4
20190824173814 82 225 3.0 8.0 0.00 0.00 0.00 40 1019.3
20190824173306 83 135 3.0 6.0 0.00 0.00 0.00 41 1019.4
20190824172754 83 135 2.0 6.0 0.00 0.00 0.00 40 1019.2
20190824172243 82 135 5.0 5.0 0.00 0.00 0.00 40 1019.4
20190824171737 83 180 3.0 5.0 0.00 0.00 0.00 42 1019.3
20190824171223 82 180 1.0 5.0 0.00 0.00 0.00 40 1019.2
20190824170713 82 180 2.0 5.0 0.00 0.00 0.00 41 1019.2
20190824170204 81 180 3.0 6.0 0.00 0.00 0.00 43 1019.4
20190824165653 82 90 2.0 6.0 0.00 0.00 0.00 41 1019.3
20190824165145 81 135 3.0 4.0 0.00 0.00 0.00 43 1019.3
20190824164637 82 135 3.0 4.0 0.00 0.00 0.00 40 1019.3
20190824164123 82 135 2.0 5.0 0.00 0.00 0.00 40 1019.0
20190824163612 80 135 3.0 5.0 0.00 0.00 0.00 43 1019.0
20190824163108 80 180 2.0 4.0 0.00 0.00 0.00 43 1018.9
20190824162554 80 135 3.0 4.0 0.00 0.00 0.00 43 1019.0
20190824162042 80 90 1.0 4.0 0.00 0.00 0.00 45 1019.2
20190824161533 79 180 3.0 4.0 0.00 0.00 0.00 45 1019.0
20190824161022 79 180 3.0 4.0 0.00 0.00 0.00 46 1019.1
20190824160512 80 180 2.0 3.0 0.00 0.00 0.00 47 1019.1
20190824160005 80 90 1.0 4.0 0.00 0.00 0.00 47 1019.0
20190824155452 81 0 0.0 4.0 0.00 0.00 0.00 49 1019.1
20190824154942 78 90 3.0 4.0 0.00 0.00 0.00 50 1019.0
20190824154432 79 180 1.0 4.0 0.00 0.00 0.00 51 1019.1
20190824153921 78 90 1.0 3.0 0.00 0.00 0.00 50 1018.9
20190824153412 78 90 2.0 4.0 0.00 0.00 0.00 51 1018.9
20190824152903 77 90 1.0 4.0 0.00 0.00 0.00 50 1019.0
20190824152351 77 90 1.0 3.0 0.00 0.00 0.00 43 1019.0
20190824151840 80 90 0.0 3.0 0.00 0.00 0.00 42 1018.8
20190824151331 79 180 1.0 2.0 0.00 0.00 0.00 41 1018.9
20190824150821 80 90 1.0 1.0 0.00 0.00 0.00 40 1018.9
20190824150310 79 135 0.0 3.0 0.00 0.00 0.00 42 1018.5
20190824145801 77 270 0.0 3.0 0.00 0.00 0.00 50 1018.6
20190824145249 75 270 0.0 3.0 0.00 0.00 0.00 50 1018.9
20190824144740 73 270 2.0 3.0 0.00 0.00 0.00 50 1018.8
20190824144232 73 270 0.0 2.0 0.00 0.00 0.00 51 1018.8
20190824143720 70 270 0.0 3.0 0.00 0.00 0.00 60 1018.8
20190824143209 69 0 1.0 3.0 0.00 0.00 0.00 60 1018.5
20190824142700 69 270 2.0 3.0 0.00 0.00 0.00 59 1018.4
20190824142148 69 270 2.0 3.0 0.00 0.00 0.00 60 1018.5
20190824141641 68 0 1.0 3.0 0.00 0.00 0.00 61 1018.2
20190824141130 67 0 1.0 2.0 0.00 0.00 0.00 61 1018.8